TimeEDT,TemperatureF,Dew PointF,Humidity,Sea Level PressureIn,VisibilityMPH,Wind Direction,Wind SpeedMPH,Gust SpeedMPH,PrecipitationIn,Events,Conditions,WindDirDegrees,DateUTC
12:54 AM,52.0,45.0,77,29.76,10.0,Calm,Calm,-,N/A,,Clear,0,2013-11-02 04:54:00
1:54 AM,52.0,43.0,71,29.76,10.0,NNW,6.9,-,N/A,,Clear,340,2013-11-02 05:54:00
2:54 AM,48.9,43.0,80,29.77,10.0,Calm,Calm,-,N/A,,Clear,0,2013-11-02 06:54:00
3:54 AM,46.0,42.1,86,29.76,10.0,Calm,Calm,-,N/A,,Clear,0,2013-11-02 07:54:00
4:54 AM,46.0,41.0,83,29.77,10.0,NNW,5.8,-,N/A,,Clear,330,2013-11-02 08:54:00
5:54 AM,43.0,41.0,93,29.79,10.0,Calm,Calm,-,N/A,,Clear,0,2013-11-02 09:54:00
6:54 AM,46.9,41.0,80,29.80,10.0,North,4.6,-,N/A,,Clear,350,2013-11-02 10:54:00
7:54 AM,44.1,39.9,85,29.83,10.0,Calm,Calm,-,N/A,,Clear,0,2013-11-02 11:54:00
8:54 AM,50.0,41.0,71,29.84,10.0,Calm,Calm,-,N/A,,Clear,0,2013-11-02 12:54:00
9:54 AM,54.0,43.0,66,29.84,10.0,NNW,10.4,-,N/A,,Clear,330,2013-11-02 13:54:00
10:54 AM,57.0,42.1,57,29.85,10.0,NNW,11.5,-,N/A,,Clear,340,2013-11-02 14:54:00
11:54 AM,59.0,39.9,49,29.85,10.0,NNW,11.5,-,N/A,,Clear,340,2013-11-02 15:54:00
12:54 PM,60.1,39.0,46,29.83,10.0,North,12.7,16.1,N/A,,Scattered Clouds,350,2013-11-02 16:54:00
1:54 PM,53.1,42.1,66,29.85,10.0,NW,18.4,32.2,0.00,Rain,Light Rain,320,2013-11-02 17:54:00
2:54 PM,53.1,37.9,57,29.83,10.0,NW,8.1,24.2,0.00,Rain,Light Rain,310,2013-11-02 18:54:00
3:54 PM,57.9,37.0,46,29.84,10.0,North,9.2,-,0.00,,Scattered Clouds,360,2013-11-02 19:54:00
4:54 PM,57.0,36.0,45,29.84,10.0,North,10.4,-,N/A,,Mostly Cloudy,350,2013-11-02 20:54:00
5:54 PM,53.1,35.1,50,29.89,10.0,NNW,12.7,-,N/A,,Partly Cloudy,340,2013-11-02 21:54:00
6:54 PM,51.1,35.1,54,29.91,10.0,North,6.9,-,N/A,,Scattered Clouds,350,2013-11-02 22:54:00
7:54 PM,48.0,35.1,61,29.95,10.0,NW,8.1,-,N/A,,Partly Cloudy,320,2013-11-02 23:54:00
8:54 PM,48.0,35.1,61,29.96,10.0,NW,12.7,-,N/A,,Clear,320,2013-11-03 00:54:00
9:54 PM,48.0,36.0,63,29.97,10.0,NNW,12.7,20.7,N/A,,Clear,340,2013-11-03 01:54:00
10:54 PM,46.9,36.0,66,29.99,10.0,NW,21.9,27.6,N/A,,Clear,320,2013-11-03 02:54:00
11:54 PM,45.0,36.0,71,30.01,10.0,North,11.5,-,N/A,,Clear,350,2013-11-03 03:54:00